| time (UTC) | temp F | wind direction | speed MPH | gust MPH | rain 1hr in | rain 24hr in | rain mn in | humidity % | barometer mb |
| 20260508174536 | 60 | 252 | 1.0 | 5.0 | 0.00 | 0.03 | 0.03 | 35 | 1011.3 |
| 20260508173029 | 62 | 351 | 1.0 | 5.0 | 0.00 | 0.03 | 0.03 | 37 | 1011.2 |
| 20260508171528 | 60 | 113 | 1.0 | 3.0 | 0.00 | 0.03 | 0.03 | 36 | 1011.4 |
| 20260508170030 | 60 | 0 | 1.0 | 5.0 | 0.00 | 0.03 | 0.03 | 37 | 1011.3 |
| 20260508164527 | 58 | 176 | 1.0 | 7.0 | 0.00 | 0.03 | 0.03 | 38 | 1011.8 |
| 20260508163036 | 58 | 261 | 1.0 | 5.0 | 0.00 | 0.03 | 0.03 | 43 | 1012.0 |
| 20260508161534 | 57 | 94 | 1.0 | 4.0 | 0.00 | 0.03 | 0.03 | 41 | 1012.2 |
| 20260508160031 | 57 | 221 | 1.0 | 6.0 | 0.00 | 0.03 | 0.03 | 45 | 1012.3 |
| 20260508154529 | 56 | 0 | 1.0 | 4.0 | 0.00 | 0.03 | 0.03 | 47 | 1012.5 |
| 20260508153028 | 56 | 246 | 1.0 | 4.0 | 0.00 | 0.03 | 0.03 | 43 | 1012.6 |
| 20260508151528 | 54 | 187 | 0.0 | 3.0 | 0.00 | 0.03 | 0.03 | 49 | 1012.9 |
| 20260508150034 | 52 | 246 | 2.0 | 4.0 | 0.00 | 0.03 | 0.03 | 50 | 1013.1 |
| 20260508144531 | 50 | 0 | 0.0 | 1.0 | 0.00 | 0.03 | 0.03 | 55 | 1013.0 |
| 20260508143030 | 49 | 248 | 0.0 | 3.0 | 0.00 | 0.03 | 0.03 | 56 | 1013.3 |
| 20260508141528 | 49 | 309 | 0.0 | 3.0 | 0.00 | 0.03 | 0.03 | 56 | 1013.3 |
| 20260508140034 | 49 | 237 | 0.0 | 3.0 | 0.00 | 0.03 | 0.03 | 57 | 1013.3 |
| 20260508134533 | 49 | 227 | 0.0 | 3.0 | 0.00 | 0.03 | 0.03 | 55 | 1013.3 |
| 20260508133028 | 49 | 212 | 0.0 | 2.0 | 0.00 | 0.03 | 0.03 | 53 | 1013.1 |
| 20260508131530 | 50 | 212 | 0.0 | 2.0 | 0.00 | 0.03 | 0.03 | 57 | 1013.1 |
| 20260508130030 | 50 | 204 | 0.0 | 2.0 | 0.00 | 0.03 | 0.03 | 64 | 1013.1 |
| 20260508124530 | 48 | 126 | 0.0 | 1.0 | 0.00 | 0.03 | 0.03 | 65 | 1013.1 |
| 20260508123027 | 45 | 120 | 0.0 | 1.0 | 0.00 | 0.03 | 0.03 | 67 | 1013.0 |
| 20260508121538 | 43 | 0 | 0.0 | 0.0 | 0.00 | 0.03 | 0.03 | 70 | 1013.1 |
| 20260508120028 | 41 | 0 | 0.0 | 0.0 | 0.00 | 0.03 | 0.03 | 69 | 1013.3 |
| 20260508114527 | 40 | 0 | 0.0 | 1.0 | 0.00 | 0.03 | 0.03 | 70 | 1013.3 |
| 20260508113031 | 40 | 0 | 0.0 | 1.0 | 0.00 | 0.03 | 0.03 | 70 | 1013.1 |
| 20260508111529 | 39 | 0 | 0.0 | 1.0 | 0.00 | 0.03 | 0.03 | 70 | 1013.3 |
| 20260508110030 | 39 | 0 | 0.0 | 0.0 | 0.00 | 0.03 | 0.03 | 70 | 1013.0 |
| 20260508104530 | 39 | 0 | 0.0 | 1.0 | 0.00 | 0.03 | 0.03 | 70 | 1012.9 |
| 20260508103036 | 38 | 0 | 0.0 | 1.0 | 0.00 | 0.03 | 0.03 | 69 | 1012.9 |
| 20260508101532 | 38 | 0 | 0.0 | 1.0 | 0.00 | 0.03 | 0.03 | 69 | 1012.8 |
| 20260508100031 | 39 | 0 | 0.0 | 0.0 | 0.00 | 0.03 | 0.03 | 69 | 1012.6 |
| 20260508094528 | 38 | 0 | 0.0 | 0.0 | 0.00 | 0.03 | 0.03 | 69 | 1012.5 |
| 20260508093031 | 38 | 0 | 0.0 | 0.0 | 0.00 | 0.03 | 0.03 | 69 | 1012.6 |
| 20260508091536 | 39 | 0 | 0.0 | 0.0 | 0.00 | 0.03 | 0.03 | 69 | 1012.4 |
| 20260508090029 | 39 | 0 | 0.0 | 0.0 | 0.00 | 0.03 | 0.03 | 69 | 1012.3 |
| 20260508084529 | 40 | 0 | 0.0 | 0.0 | 0.00 | 0.03 | 0.03 | 69 | 1012.1 |
| 20260508083030 | 39 | 0 | 0.0 | 0.0 | 0.00 | 0.03 | 0.03 | 69 | 1011.9 |
| 20260508081555 | 39 | 0 | 0.0 | 0.0 | 0.00 | 0.03 | 0.03 | 68 | 1011.9 |
| 20260508080028 | 39 | 0 | 0.0 | 0.0 | 0.00 | 0.03 | 0.03 | 66 | 1011.9 |
| 20260508074530 | 39 | 0 | 0.0 | 0.0 | 0.00 | 0.03 | 0.03 | 67 | 1011.7 |
| 20260508073028 | 39 | 0 | 0.0 | 0.0 | 0.00 | 0.03 | 0.03 | 67 | 1011.6 |
| 20260508071539 | 40 | 0 | 0.0 | 0.0 | 0.00 | 0.03 | 0.03 | 68 | 1011.6 |
| 20260508070029 | 41 | 0 | 0.0 | 0.0 | 0.00 | 0.03 | 0.03 | 69 | 1011.7 |
| 20260508064530 | 42 | 0 | 0.0 | 0.0 | 0.00 | 0.07 | 0.03 | 70 | 1011.6 |
| 20260508063044 | 43 | 0 | 0.0 | 1.0 | 0.03 | 0.07 | 0.03 | 70 | 1011.4 |
| 20260508061530 | 44 | 0 | 0.0 | 1.0 | 0.03 | 0.07 | 0.03 | 70 | 1011.3 |
| 20260508060035 | 45 | 0 | 0.0 | 1.0 | 0.03 | 0.07 | 0.03 | 69 | 1011.2 |
| 20260508054531 | 46 | 91 | 0.0 | 5.0 | 0.03 | 0.09 | 0.03 | 66 | 1011.7 |
| 20260508053033 | 47 | 89 | 0.0 | 2.0 | 0.00 | 0.06 | 0.00 | 60 | 1011.9 |
| 20260508051534 | 47 | 0 | 0.0 | 6.0 | 0.00 | 0.06 | 0.00 | 59 | 1011.5 |
| 20260508050028 | 47 | 117 | 1.0 | 6.0 | 0.00 | 0.06 | 0.00 | 58 | 1011.2 |
| 20260508044530 | 48 | 109 | 1.0 | 10.0 | 0.00 | 0.06 | 0.00 | 59 | 1010.7 |
| 20260508043030 | 48 | 150 | 0.0 | 0.0 | 0.00 | 0.06 | 0.00 | 60 | 1010.4 |
| 20260508041530 | 48 | 0 | 0.0 | 0.0 | 0.00 | 0.06 | 0.00 | 60 | 1010.0 |
| 20260508040030 | 49 | 0 | 0.0 | 2.0 | 0.00 | 0.06 | 0.00 | 56 | 1010.0 |
| 20260508034532 | 50 | 0 | 2.0 | 5.0 | 0.00 | 0.06 | 0.06 | 52 | 1010.6 |
| 20260508033031 | 48 | 0 | 0.0 | 0.0 | 0.00 | 0.06 | 0.06 | 58 | 1009.8 |
| 20260508031531 | 48 | 0 | 0.0 | 0.0 | 0.00 | 0.06 | 0.06 | 54 | 1009.0 |
| 20260508030028 | 49 | 0 | 0.0 | 0.0 | 0.00 | 0.06 | 0.06 | 53 | 1008.9 |
| 20260508024542 | 51 | 0 | 0.0 | 1.0 | 0.00 | 0.06 | 0.06 | 54 | 1008.8 |
| 20260508023029 | 51 | 0 | 0.0 | 0.0 | 0.00 | 0.06 | 0.06 | 51 | 1009.1 |
| 20260508021530 | 51 | 0 | 0.0 | 0.0 | 0.00 | 0.06 | 0.06 | 43 | 1009.1 |
| 20260508020029 | 52 | 0 | 0.0 | 0.0 | 0.00 | 0.06 | 0.06 | 48 | 1009.0 |
| 20260508014534 | 52 | 0 | 0.0 | 0.0 | 0.00 | 0.06 | 0.06 | 44 | 1008.8 |
| 20260508013029 | 52 | 0 | 0.0 | 1.0 | 0.00 | 0.06 | 0.06 | 46 | 1008.8 |
| 20260508011530 | 52 | 0 | 0.0 | 0.0 | 0.00 | 0.06 | 0.06 | 44 | 1008.6 |
| 20260508010034 | 53 | 0 | 0.0 | 0.0 | 0.00 | 0.06 | 0.06 | 45 | 1008.6 |
| 20260508004528 | 54 | 0 | 0.0 | 0.0 | 0.00 | 0.06 | 0.06 | 42 | 1008.3 |
| 20260508003031 | 55 | 0 | 0.0 | 1.0 | 0.00 | 0.06 | 0.06 | 43 | 1008.2 |
| 20260508001532 | 55 | 0 | 0.0 | 1.0 | 0.00 | 0.06 | 0.06 | 37 | 1008.1 |
| 20260508000030 | 55 | 0 | 0.0 | 0.0 | 0.00 | 0.06 | 0.06 | 40 | 1008.1 |
| 20260507234530 | 55 | 0 | 0.0 | 0.0 | 0.00 | 0.06 | 0.06 | 39 | 1008.1 |
| 20260507233039 | 56 | 0 | 0.0 | 1.0 | 0.00 | 0.06 | 0.06 | 36 | 1007.7 |
| 20260507230028 | 57 | 0 | 0.0 | 2.0 | 0.00 | 0.06 | 0.06 | 34 | 1007.8 |
| 20260507224540 | 58 | 0 | 0.0 | 3.0 | 0.00 | 0.06 | 0.06 | 32 | 1007.7 |
| 20260507223033 | 59 | 271 | 0.0 | 4.0 | 0.00 | 0.06 | 0.06 | 30 | 1007.5 |
| 20260507221535 | 59 | 117 | 0.0 | 2.0 | 0.00 | 0.06 | 0.06 | 28 | 1007.5 |
| 20260507220028 | 60 | 223 | 0.0 | 4.0 | 0.00 | 0.06 | 0.06 | 33 | 1007.6 |
| 20260507214531 | 61 | 82 | 0.0 | 5.0 | 0.00 | 0.06 | 0.06 | 28 | 1007.6 |
| 20260507213041 | 62 | 113 | 0.0 | 6.0 | 0.00 | 0.06 | 0.06 | 31 | 1007.5 |
| 20260507211531 | 59 | 91 | 2.0 | 7.0 | 0.00 | 0.06 | 0.06 | 29 | 1007.6 |
| 20260507210030 | 61 | 110 | 1.0 | 4.0 | 0.00 | 0.06 | 0.06 | 30 | 1007.5 |
| 20260507204530 | 61 | 227 | 1.0 | 4.0 | 0.00 | 0.06 | 0.06 | 27 | 1007.6 |
| 20260507203038 | 63 | 97 | 1.0 | 3.0 | 0.00 | 0.06 | 0.06 | 28 | 1007.5 |
| 20260507201531 | 62 | 95 | 1.0 | 13.0 | 0.00 | 0.06 | 0.06 | 29 | 1007.6 |
| 20260507200034 | 62 | 250 | 3.0 | 8.0 | 0.00 | 0.06 | 0.06 | 28 | 1007.8 |
| 20260507194529 | 61 | 115 | 1.0 | 5.0 | 0.00 | 0.06 | 0.06 | 28 | 1007.9 |
| 20260507193028 | 65 | 0 | 0.0 | 3.0 | 0.00 | 0.06 | 0.06 | 29 | 1008.1 |
| 20260507191528 | 64 | 205 | 1.0 | 5.0 | 0.00 | 0.06 | 0.06 | 25 | 1008.1 |
| 20260507190032 | 63 | 105 | 2.0 | 7.0 | 0.00 | 0.06 | 0.06 | 27 | 1008.2 |
| 20260507184529 | 64 | 113 | 2.0 | 9.0 | 0.00 | 0.10 | 0.06 | 28 | 1008.4 |
| 20260507183030 | 64 | 105 | 1.0 | 6.0 | 0.00 | 0.10 | 0.06 | 31 | 1008.6 |
| 20260507181532 | 64 | 91 | 1.0 | 6.0 | 0.00 | 0.10 | 0.06 | 27 | 1008.7 |
| 20260507180034 | 63 | 15 | 0.0 | 8.0 | 0.00 | 0.10 | 0.06 | 30 | 1008.8 |